User: anonymous   Login
Location: Eferding
(48.3167°N, 14.0167°E)
Time: 18:07:15
(UTC+00:00)
Language:

Cosmos 1816 Rocket - Orbit

View from above orbital plane
View from above orbital plane
View from above satellite
View from above satellite

Ground track
Ground track

The orbit data is extracted from the following two-line orbital elements,

1 17360U 87009B   20024.45087616  .00000072  00000-0  57163-4 0  9991
2 17360  82.9193 278.8587 0033619  53.0183 121.4446 13.76736545657083
Epoch (UTC): 24 January 2020 10:49:15
Eccentricity: 0.0033619
inclination: 82.9193°
perigee height: 951 km
apogee height: 1000 km
right ascension of ascending node: 278.8587°
argument of perigee: 53.0183°
revolutions per day: 13.76736545
mean anomaly at epoch: 121.4446°
orbit number at epoch: 65708

The dashed part of the orbit path shows where the satellite is in the earth's shadow,  

DLR